Zurück zum Katalog

COSMOS 637

AktivMilitärGEO
NORAD 7229·PAYLOAD·🇷🇺 Russia

Gestartet Mar 26, 1974 von Baikonur Cosmodrome

Loading…

TLE

AktuellSource: Space-Track

Epoche: Sep 14, 2026, 13:50 UTC

1 07229U 74017A   26257.57676605  .00000080  00000-0  00000-0 0  9991
2 07229   0.6186 243.8819 0037995  88.8665  43.8923  1.00772068123109

Verfolge COSMOS 637 in Echtzeit mit AllMySat

Download on the App Store